• In India
  • List of Countries
  • For 7 days
  • Water Temperature
  • Satellite Maps
  • Weather Map
  • Weather Widgets
  • user-avatar
    Login

    Hourly Weather Zambezia Province

    Today, 20 September, Thursday

    Time Temperature Precipitation Wind Pressure Humidity
    00:00 +29°C° 0 mm 2 mps 744 mmHg 45%
    01:00 +28°C° 0 mm 2 mps 744 mmHg 49%
    02:00 +27°C° 0 mm 2 mps 744 mmHg 52%
    03:00 +27°C° 0 mm 1 mps 744 mmHg 53%
    04:00 +26°C° 0 mm 1 mps 744 mmHg 54%
    05:00 +26°C° 0 mm 1 mps 744 mmHg 55%
    06:00 +28°C° 0 mm 1 mps 744 mmHg 49%
    07:00 +31°C° 0 mm 2 mps 745 mmHg 43%
    08:00 +34°C° 0 mm 2 mps 745 mmHg 37%
    09:00 +36°C° 0 mm 2 mps 745 mmHg 31%
    10:00 +38°C° 0 mm 2 mps 745 mmHg 25%
    11:00 +40°C° 0 mm 3 mps 745 mmHg 19%
    12:00 +40°C° 0 mm 3 mps 744 mmHg 18%
    13:00 +42°C° 0 mm 3 mps 743 mmHg 17%
    14:00 +42°C° 0 mm 3 mps 742 mmHg 16%
    15:00 +40°C° 0 mm 3 mps 742 mmHg 17%
    16:00 +39°C° 0 mm 3 mps 742 mmHg 18%
    17:00 +38°C° 0 mm 3 mps 742 mmHg 20%
    18:00 +36°C° 0 mm 3 mps 743 mmHg 27%
    19:00 +34°C° 0 mm 4 mps 743 mmHg 34%
    20:00 +33°C° 0 mm 4 mps 744 mmHg 41%
    21:00 +32°C° 0 mm 4 mps 744 mmHg 44%
    22:00 +30°C° 0 mm 3 mps 744 mmHg 47%
    23:00 +29°C° 0 mm 3 mps 745 mmHg 50%

    Tomorrow, 21 September, Friday

    Time Temperature Precipitation Wind Pressure Humidity
    00:00 +29°C° 0 mm 2 mps 745 mmHg 52%
    01:00 +28°C° 0 mm 2 mps 744 mmHg 54%
    02:00 +27°C° 0 mm 1 mps 744 mmHg 55%
    03:00 +26°C° 0 mm 1 mps 744 mmHg 58%
    04:00 +25°C° 0 mm 1 mps 745 mmHg 60%
    05:00 +25°C° 0 mm 1 mps 745 mmHg 63%
    06:00 +27°C° 0 mm 1 mps 745 mmHg 55%
    07:00 +29°C° 0 mm 2 mps 746 mmHg 47%
    08:00 +31°C° 0 mm 2 mps 747 mmHg 40%
    09:00 +33°C° 0 mm 3 mps 746 mmHg 34%
    10:00 +35°C° 0 mm 3 mps 746 mmHg 29%
    11:00 +37°C° 0 mm 3 mps 746 mmHg 24%
    12:00 +37°C° 0 mm 4 mps 745 mmHg 23%
    13:00 +38°C° 0 mm 4 mps 744 mmHg 22%
    14:00 +38°C° 0 mm 4 mps 743 mmHg 21%
    15:00 +37°C° 0 mm 4 mps 743 mmHg 23%
    16:00 +36°C° 0 mm 4 mps 743 mmHg 25%
    17:00 +35°C° 0 mm 4 mps 743 mmHg 27%
    18:00 +33°C° 0 mm 4 mps 743 mmHg 36%
    19:00 +30°C° 0 mm 4 mps 744 mmHg 44%
    20:00 +28°C° 0 mm 3 mps 745 mmHg 53%
    21:00 +27°C° 0 mm 2 mps 745 mmHg 62%
    22:00 +26°C° 0 mm 2 mps 745 mmHg 70%
    23:00 +25°C° 0 mm 1 mps 745 mmHg 78%

    Day after tomorrow, 22 September, Saturday

    Time Temperature Precipitation Wind Pressure Humidity
    00:00 +24°C° 0 mm 1 mps 745 mmHg 83%
    01:00 +23°C° 0 mm 1 mps 744 mmHg 87%
    02:00 +21°C° 0 mm 0 mps 744 mmHg 92%
    03:00 +23°C° 0 mm 1 mps 744 mmHg 91%
    04:00 +23°C° 0 mm 1 mps 744 mmHg 91%
    05:00 +22°C° 0 mm 1 mps 744 mmHg 90%
    06:00 +24°C° 0 mm 1 mps 745 mmHg 81%
    07:00 +25°C° 0 mm 1 mps 746 mmHg 73%
    08:00 +27°C° 0 mm 2 mps 746 mmHg 64%
    09:00 +29°C° 0 mm 2 mps 746 mmHg 56%
    10:00 +31°C° 0 mm 2 mps 746 mmHg 47%
    11:00 +34°C° 0 mm 3 mps 745 mmHg 39%
    12:00 +35°C° 0 mm 3 mps 745 mmHg 35%
    13:00 +36°C° 0 mm 3 mps 744 mmHg 31%
    14:00 +36°C° 0 mm 3 mps 743 mmHg 27%
    15:00 +36°C° 0 mm 3 mps 743 mmHg 29%
    16:00 +35°C° 0 mm 3 mps 743 mmHg 30%
    17:00 +34°C° 0 mm 3 mps 742 mmHg 32%
    18:00 +31°C° 0 mm 3 mps 743 mmHg 41%
    19:00 +29°C° 0 mm 3 mps 744 mmHg 51%
    20:00 +27°C° 0 mm 3 mps 744 mmHg 60%
    21:00 +26°C° 0 mm 3 mps 745 mmHg 67%
    22:00 +25°C° 0 mm 2 mps 745 mmHg 74%
    23:00 +24°C° 0 mm 2 mps 745 mmHg 81%

    23 September, Sunday

    Time Temperature Precipitation Wind Pressure Humidity
    00:00 +24°C° 0 mm 1 mps 745 mmHg 82%
    01:00 +24°C° 0 mm 1 mps 744 mmHg 83%
    02:00 +24°C° 0 mm 1 mps 744 mmHg 84%
    03:00 +24°C° 0 mm 1 mps 744 mmHg 85%
    04:00 +24°C° 0 mm 1 mps 744 mmHg 85%
    05:00 +23°C° 0 mm 1 mps 745 mmHg 86%
    06:00 +26°C° 0 mm 1 mps 745 mmHg 75%
    07:00 +28°C° 0 mm 1 mps 746 mmHg 65%
    08:00 +30°C° 0 mm 1 mps 746 mmHg 54%
    09:00 +32°C° 0 mm 2 mps 746 mmHg 45%
    10:00 +35°C° 0 mm 3 mps 745 mmHg 36%
    11:00 +36°C° 0 mm 3 mps 745 mmHg 27%
    12:00 +37°C° 0 mm 3 mps 744 mmHg 26%
    13:00 +37°C° 0 mm 3 mps 743 mmHg 25%
    14:00 +38°C° 0 mm 3 mps 742 mmHg 24%
    15:00 +37°C° 0 mm 3 mps 742 mmHg 26%
    16:00 +36°C° 0 mm 4 mps 742 mmHg 28%
    17:00 +35°C° 0 mm 4 mps 742 mmHg 30%
    18:00 +33°C° 0 mm 4 mps 743 mmHg 40%
    19:00 +30°C° 0 mm 4 mps 743 mmHg 50%
    20:00 +28°C° 0 mm 4 mps 744 mmHg 60%
    21:00 +27°C° 0 mm 3 mps 744 mmHg 65%
    22:00 +27°C° 0 mm 3 mps 744 mmHg 71%
    23:00 +26°C° 0 mm 2 mps 744 mmHg 76%

    24 September, Monday

    Time Temperature Precipitation Wind Pressure Humidity
    00:00 +25°C° 0 mm 2 mps 744 mmHg 78%
    01:00 +25°C° 0 mm 1 mps 743 mmHg 80%
    02:00 +24°C° 0 mm 1 mps 743 mmHg 82%
    03:00 +24°C° 0 mm 1 mps 743 mmHg 84%
    04:00 +24°C° 0 mm 1 mps 744 mmHg 86%
    05:00 +23°C° 0 mm 1 mps 744 mmHg 88%
    06:00 +26°C° 0 mm 1 mps 744 mmHg 75%
    07:00 +28°C° 0 mm 1 mps 745 mmHg 62%
    08:00 +30°C° 0 mm 2 mps 745 mmHg 49%
    09:00 +34°C° 0 mm 2 mps 745 mmHg 41%
    10:00 +36°C° 0 mm 3 mps 744 mmHg 32%
    11:00 +38°C° 0 mm 3 mps 743 mmHg 24%
    12:00 +38°C° 0 mm 3 mps 743 mmHg 22%
    13:00 +39°C° 0 mm 3 mps 742 mmHg 21%
    14:00 +39°C° 0 mm 3 mps 741 mmHg 19%
    15:00 +38°C° 0 mm 3 mps 741 mmHg 21%
    16:00 +37°C° 0 mm 3 mps 741 mmHg 23%
    17:00 +37°C° 0 mm 3 mps 741 mmHg 24%
    18:00 +35°C° 0 mm 3 mps 742 mmHg 32%
    19:00 +33°C° 0 mm 4 mps 742 mmHg 40%
    20:00 +30°C° 0 mm 4 mps 743 mmHg 47%
    21:00 +29°C° 0 mm 4 mps 743 mmHg 50%
    22:00 +29°C° 0 mm 3 mps 743 mmHg 54%
    23:00 +28°C° 0 mm 3 mps 743 mmHg 57%

    25 September, Tuesday

    Time Temperature Precipitation Wind Pressure Humidity
    00:00 +28°C° 0 mm 2 mps 743 mmHg 59%
    01:00 +27°C° 0 mm 2 mps 743 mmHg 61%
    02:00 +27°C° 0 mm 2 mps 742 mmHg 62%
    03:00 +26°C° 0 mm 1 mps 743 mmHg 64%
    04:00 +26°C° 0 mm 1 mps 743 mmHg 66%
    05:00 +25°C° 0 mm 1 mps 743 mmHg 68%
    06:00 +28°C° 0 mm 2 mps 744 mmHg 58%
    07:00 +30°C° 0 mm 2 mps 744 mmHg 49%
    08:00 +34°C° 0 mm 2 mps 745 mmHg 40%
    09:00 +36°C° 0 mm 2 mps 744 mmHg 34%
    10:00 +38°C° 0 mm 3 mps 743 mmHg 28%
    11:00 +40°C° 0 mm 3 mps 743 mmHg 22%
    12:00 +40°C° 0 mm 3 mps 742 mmHg 21%
    13:00 +40°C° 0 mm 3 mps 741 mmHg 20%
    14:00 +40°C° 0 mm 3 mps 740 mmHg 20%
    15:00 +39°C° 0 mm 3 mps 740 mmHg 20%
    16:00 +38°C° 0 mm 3 mps 740 mmHg 21%
    17:00 +38°C° 0 mm 3 mps 740 mmHg 22%
    18:00 +36°C° 0 mm 3 mps 741 mmHg 26%
    19:00 +34°C° 0 mm 3 mps 741 mmHg 30%
    20:00 +33°C° 0 mm 3 mps 742 mmHg 34%
    21:00 +31°C° 0 mm 3 mps 742 mmHg 38%
    22:00 +30°C° 0 mm 3 mps 742 mmHg 42%
    23:00 +29°C° 0 mm 3 mps 742 mmHg 46%
    Show more